Vertical_Velocity
2 -4 -0 4 4 1 -1 -3 -1 0 -2 -2 -1 1 -1 -3 -1 3 1 -2 2 3 -1 -1 -2 -1 1 2 -2 2 2 -1 1 1 1 1 0 -0 2 0 1 -0 -1 -2 -1 -1 -1 1 -1
-2 -0 2 1 1 -3 -1 -1 -4 0 1 -0 2 4 2 -2 -1 0 -1 -3 1 2 -1 -1 -2 -0 -0 1 -2 1 1 -1 -1 1 3 1 1 1 2 -1 0 -0 1 -1 -1 -0 -0 -0 1
-1 2 -0 0 0 -2 0 -3 -1 -1 -1 1 1 -0 0 -1 -1 -3 0 -1 1 -1 -1 -0 -1 -2 -2 -1 1 1 1 2 0 -0 2 -0 1 -2 -1 0 1 -1 0 -1 0 -2 -1 2 -0
-2 -6 -1 -1 -4 -2 -2 -1 -3 -2 0 -0 -3 0 -2 -1 1 -0 -2 0 0 -0 0 2 -0 -1 1 0 0 2 3 1 -1 1 3 -1 -0 -2 -0 3 1 0 -2 -1 -1 -1 0 -1 -1
-2 -1 4 -1 -2 0 -3 -1 -0 -1 2 -0 -2 -2 -1 -1 -2 -2 1 2 2 4 2 -0 1 -1 1 -1 0 -0 1 1 -0 2 2 -2 2 3 -2 6 0 -1 -1 -0 1 -0 1 2 0
-2 -2 -0 -1 -0 0 -0 -0 -4 -2 -1 -1 -1 -3 -2 -1 -1 -3 -1 -2 -1 -1 -1 -1 -1 -2 1 1 1 1 5 -1 2 7 -0 1 1 1 5 4 0 -1 -1 -2 1 -0 2 2 0
-5 0 0 0 4 2 -0 1 -2 -3 1 2 2 -6 -4 1 2 0 -1 0 1 0 -0 -1 -1 -0 -2 2 4 11 73 20 12 18 -0 1 4 1 5 7 -1 -1 -1 0 -1 2 1 0 -1
-1 -2 -3 -2 1 1 -2 -5 -2 -3 -2 -1 2 -3 -3 2 -0 -2 0 0 0 -0 -0 -0 -0 -1 1 6 3 159 28 -21 -8 -3 3 7 2 1 -2 1 -2 -0 -2 -1 1 1 1 -0 -2
-1 0 -3 -3 1 4 2 -6 -2 -2 -3 -1 2 -3 -0 -0 -3 1 1 -0 -2 -1 -2 -2 -1 1 -0 6 3 -1 -16 -3 -1 7 2 3 0 -2 -1 -0 0 -1 -1 -3 -0 0 2 -0 -2
-1 -1 -2 -2 -3 2 0 -2 -3 0 -3 2 -1 -1 -3 -1 1 1 -1 -2 -1 -1 -0 -3 -3 -0 1 1 13 15 3 6 -3 3 3 2 1 1 2 0 1 -1 1 -1 -2 -0 -0 -1 -3
1 -1 -0 -5 -3 1 1 1 -4 -2 -3 -1 -0 -3 -0 1 2 0 -2 -1 -1 -1 -1 -1 -1 -1 1 -1 0 -0 -1 -0 3 2 2 2 -0 4 0 0 1 -1 1 -1 -2 -1 -1 0 -0
3 -1 -1 -5 -2 1 1 -1 -1 -2 0 -1 -0 -3 -2 2 -2 -1 -1 -1 -2 -2 -1 -0 -1 -0 1 1 -1 2 4 2 1 -0 -1 -3 18 1 -0 -1 1 -1 -1 -0 -1 -0 -0 1 1
-1 0 -0 -2 -2 -1 -2 1 1 -0 -1 -3 -1 -2 -1 0 -2 -1 -1 1 -1 -1 1 -0 -0 0 -1 -2 3 -1 1 0 -3 13 5 8 -2 1 -1 -0 -0 1 -1 -2 -1 -0 1 -2 1
-1 2 -1 -1 -0 -1 0 -2 1 1 -2 -2 0 -3 -1 0 0 -3 -2 -2 -1 -0 0 -3 1 0 -1 -1 -0 -0 1 -2 -1 -1 2 9 -0 -0 1 -0 -1 -0 -3 -2 -2 -2 -0 -0 -0
-3 0 4 -2 -3 -3 1 -0 4 2 -1 -0 -1 -4 -1 -1 -0 -1 -3 -2 -0 -0 -1 0 0 0 -1 1 -1 2 1 2 1 4 -0 -0 -0 -0 -3 -1 -1 -1 -2 -0 -3 -1 -1 -1 -0
-1 1 -3 -1 -2 -2 -2 -2 1 1 1 -1 -2 1 -0 -2 -2 -1 -4 -2 -2 -1 -1 -2 2 -0 2 4 3 2 1 -3 -2 9 7 1 1 -0 0 -1 -1 -1 -0 -2 -0 -0 1 0 0
4 3 -1 -2 -1 -2 -5 -0 -4 -1 -4 -0 1 1 1 1 -1 -3 -1 -0 -0 -2 -3 3 -1 1 0 -2 1 6 5 -2 0 -1 -2 -4 -1 0 1 1 2 2 2 1 2 0 3 4 0
-2 -4 3 -1 -1 -1 -6 -3 0 -0 1 -1 -2 -1 -1 1 -2 2 -2 3 -2 0 -2 -1 -1 0 -0 -2 -2 0 -1 5 -2 -0 2 3 3 2 3 2 1 2 3 1 1 1 1 2 1
3 -1 10 -0 0 -1 -0 -2 -6 -0 -1 -0 -1 -1 -2 1 -3 -3 -0 13 3 3 -0 -1 -3 1 1 -1 1 -0 8 -4 -1 -1 -1 -0 -1 2 2 3 3 1 2 7 -1 6 10 5 4
-1 -3 -3 -1 1 -2 -1 -2 -1 -1 -1 0 -2 -3 -2 1 -2 -1 -1 2 1 13 4 4 -1 -4 -0 1 6 1 -3 2 1 0 3 -0 2 3 10 2 2 17 1 9 1 2 -1 -1 12
-0 1 -0 3 1 -1 -0 -1 -1 1 -1 -1 -3 -3 -0 -2 -0 1 -1 1 1 3 -4 6 5 -1 -3 -3 -0 -1 -2 -2 -1 -2 -1 -0 -0 -0 -1 -0 0 1 7 8 4 -1 0 -1 0
0 1 2 -1 -0 1 0 -1 -0 -1 2 1 -3 -2 -0 -2 -4 -1 -1 -2 -1 1 -0 3 4 2 -4 -1 1 3 1 -1 1 -1 -1 -0 2 -0 -2 -3 -1 2 1 1 2 0 -2 -3 -3
-1 -1 1 3 2 -3 -1 -0 -1 1 1 2 -1 -1 -1 -2 -3 -3 -0 0 -2 0 3 2 -4 4 -1 -1 -3 -0 1 1 -1 3 1 2 2 -1 -0 1 -2 -3 -3 -5 -5 -2 0 -1 -2
-1 1 -1 1 0 -2 -2 1 0 -3 -1 0 5 -2 -3 -2 -2 -3 -2 2 -2 0 -1 2 -0 -1 -4 -1 -1 -1 -0 -1 -2 -1 -0 1 4 1 1 -0 1 1 -1 0 1 -1 -2 -3 -2
3 1 2 0 -4 -1 -2 -1 0 0 -4 -1 2 -1 -2 -4 -2 -1 -1 -1 -1 0 -0 -2 -2 -1 -1 -0 1 2 2 -0 -1 -1 -3 -4 -4 -4 -5 -3 -1 -0 2 3 2 -1 -3 -3 -4
4 -4 2 1 1 0 -3 -2 -2 -3 -2 -4 -0 -0 -2 -2 0 -2 -1 -0 0 -1 -1 -3 -1 2 2 -2 -2 -2 -1 1 0 -1 -1 -1 -0 4 3 1 -1 -2 -5 -4 -2 -3 -4 -0 1
1 -2 0 2 -3 -3 0 -1 -1 -3 -1 1 -2 -2 -1 -1 -1 -1 -1 -1 -2 -2 1 -0 0 -1 -1 -1 -1 -0 -0 -1 1 -0 -2 -1 0 2 -1 -2 -3 -0 -1 -2 -4 -3 2 1 -3
-4 0 -1 1 -7 -1 -0 -2 0 -3 -1 1 -1 -2 -0 -1 -0 -1 -1 -2 -2 -1 -1 -0 2 -0 -1 -1 -1 -2 -1 1 -1 -2 -0 0 1 -1 -1 -0 4 2 0 1 -4 1 -4 8 0
-1 2 -5 -3 1 2 -0 0 -0 3 -1 1 -2 -3 -5 -3 -1 -1 -1 -1 -4 -3 -3 -0 0 -0 -0 2 1 0 2 1 -0 1 4 2 -1 0 2 5 3 3 2 0 5 -6 2 6 9
-6 -6 5 6 -1 3 2 -2 -5 0 -2 0 -1 -2 -3 -1 -1 -1 0 0 -1 -0 -1 -1 1 1 -1 0 0 0 3 3 4 -4 3 -2 -0 0 -3 -3 5 3 1 0 -0 -2 -1 -3 -1
Height
5871 5871 5870 5870 5872 5867 5867 5868 5867 5868 5868 5868 5870 5871 5872 5872 5872 5877 5877 5880 5879 5880 5882 5882 5883 5884 5884 5885 5887 5888 5889 5891 5892 5895 5895 5896 5899 5902 5904 5905 5905 5907 5906 5906 5906 5907 5908 5909 5911
5871 5872 5873 5871 5871 5868 5868 5869 5868 5869 5870 5871 5872 5874 5874 5873 5873 5875 5877 5878 5879 5882 5881 5881 5884 5884 5883 5885 5888 5889 5890 5892 5893 5896 5897 5898 5901 5903 5905 5906 5907 5909 5908 5908 5909 5910 5910 5911 5912
5871 5872 5873 5872 5870 5869 5869 5869 5869 5870 5872 5874 5875 5874 5875 5875 5875 5876 5877 5879 5881 5883 5882 5883 5884 5884 5885 5886 5888 5890 5891 5892 5893 5896 5898 5900 5902 5904 5907 5908 5909 5910 5910 5910 5911 5912 5912 5913 5914
5870 5870 5872 5872 5871 5870 5870 5871 5871 5872 5874 5876 5876 5877 5877 5876 5877 5877 5879 5881 5884 5882 5883 5885 5884 5884 5884 5886 5889 5889 5891 5893 5894 5897 5899 5902 5904 5906 5909 5908 5911 5912 5912 5913 5914 5914 5915 5915 5916
5872 5872 5874 5873 5874 5874 5873 5874 5874 5874 5877 5878 5877 5878 5879 5879 5880 5879 5881 5882 5882 5883 5884 5884 5884 5884 5886 5887 5887 5888 5890 5893 5894 5896 5899 5903 5905 5907 5909 5910 5911 5914 5916 5916 5916 5918 5919 5919 5920
5875 5875 5876 5876 5877 5877 5877 5876 5874 5875 5878 5879 5879 5878 5879 5881 5882 5881 5883 5883 5884 5884 5885 5884 5884 5884 5885 5886 5886 5888 5888 5891 5894 5896 5900 5903 5905 5908 5912 5913 5914 5916 5917 5919 5919 5921 5922 5923 5924
5877 5877 5877 5878 5880 5882 5880 5878 5877 5878 5881 5882 5881 5880 5882 5883 5884 5883 5884 5884 5885 5885 5886 5885 5884 5884 5884 5884 5885 5884 5875 5886 5890 5893 5899 5903 5906 5909 5912 5914 5916 5918 5920 5920 5921 5924 5924 5925 5925
5880 5881 5881 5881 5882 5883 5882 5879 5880 5881 5882 5883 5884 5883 5884 5886 5885 5885 5886 5886 5886 5886 5886 5884 5884 5884 5885 5884 5884 5842 5875 5887 5892 5894 5898 5903 5908 5911 5913 5915 5917 5920 5922 5922 5923 5925 5925 5926 5926
5885 5884 5885 5886 5885 5886 5887 5885 5884 5884 5885 5886 5887 5887 5887 5888 5887 5888 5888 5887 5887 5887 5886 5886 5885 5883 5882 5885 5883 5882 5887 5891 5894 5892 5899 5904 5908 5913 5915 5917 5919 5921 5922 5923 5925 5925 5926 5927 5927
5888 5886 5888 5889 5886 5888 5890 5889 5889 5889 5889 5889 5890 5890 5890 5890 5891 5891 5890 5889 5889 5889 5888 5887 5884 5882 5881 5883 5883 5886 5888 5892 5895 5897 5901 5905 5909 5912 5915 5918 5919 5922 5924 5925 5926 5927 5927 5927 5927
5894 5890 5892 5891 5889 5890 5893 5893 5892 5893 5892 5892 5892 5893 5894 5894 5895 5893 5891 5891 5891 5890 5890 5889 5887 5885 5883 5884 5885 5887 5888 5891 5894 5897 5900 5904 5908 5911 5914 5917 5920 5923 5925 5926 5927 5928 5928 5928 5929
5901 5897 5896 5894 5892 5893 5895 5896 5896 5896 5896 5895 5894 5894 5896 5897 5897 5894 5893 5892 5893 5892 5893 5892 5891 5888 5886 5885 5887 5888 5890 5892 5895 5899 5901 5904 5907 5911 5914 5917 5921 5923 5926 5927 5928 5929 5929 5929 5930
5901 5902 5898 5896 5896 5896 5897 5898 5899 5898 5898 5898 5898 5897 5898 5899 5899 5897 5895 5895 5895 5894 5894 5894 5893 5892 5890 5888 5888 5890 5891 5895 5897 5898 5903 5905 5909 5913 5915 5919 5921 5923 5926 5927 5929 5930 5930 5930 5930
5903 5904 5901 5899 5896 5897 5898 5898 5899 5899 5899 5899 5898 5898 5899 5900 5900 5898 5897 5897 5897 5897 5897 5896 5896 5895 5894 5892 5890 5891 5892 5895 5899 5901 5904 5907 5911 5915 5918 5920 5922 5924 5926 5927 5929 5930 5930 5931 5932
5905 5904 5904 5902 5900 5900 5901 5900 5900 5899 5899 5900 5900 5900 5900 5901 5901 5899 5898 5898 5898 5899 5899 5899 5899 5899 5899 5897 5896 5894 5894 5896 5899 5903 5906 5910 5914 5917 5919 5920 5922 5925 5927 5927 5928 5929 5930 5931 5932
5906 5905 5905 5904 5903 5901 5902 5901 5901 5901 5900 5899 5900 5901 5902 5902 5901 5900 5898 5899 5900 5900 5901 5901 5902 5901 5902 5901 5900 5899 5898 5898 5899 5904 5907 5910 5913 5916 5919 5921 5922 5925 5926 5927 5928 5929 5929 5929 5931
5906 5907 5907 5907 5906 5904 5903 5903 5904 5903 5902 5903 5902 5903 5903 5903 5902 5900 5900 5901 5901 5901 5902 5902 5903 5903 5903 5903 5904 5904 5904 5904 5903 5902 5909 5911 5914 5917 5920 5922 5923 5925 5926 5926 5927 5928 5928 5929 5929
5907 5908 5910 5910 5911 5908 5907 5907 5905 5906 5905 5906 5904 5904 5905 5904 5902 5902 5902 5903 5902 5902 5902 5903 5905 5905 5905 5904 5906 5906 5907 5908 5909 5911 5914 5916 5918 5919 5921 5921 5923 5924 5924 5924 5924 5926 5926 5926 5926
5909 5910 5912 5913 5912 5911 5910 5909 5907 5908 5908 5908 5908 5905 5906 5906 5904 5904 5905 5905 5905 5905 5904 5905 5906 5905 5906 5906 5908 5908 5908 5910 5911 5913 5915 5916 5918 5920 5921 5923 5924 5923 5924 5924 5924 5925 5925 5925 5924
5910 5911 5913 5914 5914 5913 5913 5912 5911 5910 5911 5911 5909 5907 5908 5908 5907 5907 5907 5908 5908 5908 5907 5909 5908 5907 5907 5907 5908 5909 5910 5911 5913 5914 5915 5918 5920 5922 5922 5923 5923 5922 5924 5925 5924 5924 5924 5923 5917
5913 5914 5914 5917 5916 5915 5915 5914 5913 5914 5913 5911 5911 5910 5910 5910 5911 5910 5911 5911 5911 5911 5909 5911 5911 5910 5910 5910 5911 5911 5912 5913 5914 5916 5918 5920 5921 5921 5921 5921 5921 5921 5921 5921 5920 5919 5920 5919 5918
5914 5915 5915 5917 5917 5917 5917 5916 5914 5914 5914 5913 5912 5912 5912 5912 5912 5913 5913 5913 5913 5912 5911 5912 5913 5913 5913 5912 5913 5914 5916 5917 5917 5919 5920 5921 5921 5919 5918 5918 5917 5917 5915 5914 5914 5914 5914 5914 5914
5914 5915 5916 5917 5917 5917 5918 5918 5916 5916 5916 5917 5916 5915 5915 5914 5913 5914 5915 5915 5915 5915 5916 5915 5914 5915 5913 5914 5915 5918 5919 5919 5918 5919 5921 5922 5921 5921 5921 5921 5919 5919 5918 5916 5914 5912 5911 5910 5910
5913 5916 5916 5916 5917 5919 5919 5919 5918 5918 5918 5919 5920 5919 5918 5917 5917 5917 5917 5918 5917 5918 5918 5918 5916 5915 5914 5915 5917 5919 5920 5921 5921 5921 5922 5922 5921 5921 5920 5919 5918 5917 5916 5914 5913 5911 5908 5905 5905
5915 5915 5916 5916 5918 5920 5920 5919 5919 5920 5921 5922 5923 5922 5922 5921 5921 5920 5921 5920 5920 5920 5920 5920 5919 5918 5917 5918 5919 5919 5920 5922 5922 5922 5921 5921 5921 5919 5918 5917 5916 5915 5914 5913 5911 5909 5907 5905 5902
5914 5915 5915 5917 5920 5922 5920 5920 5922 5922 5923 5925 5926 5924 5925 5925 5925 5925 5925 5925 5924 5923 5923 5922 5922 5922 5922 5921 5921 5921 5921 5920 5919 5920 5919 5918 5918 5917 5916 5914 5913 5910 5908 5907 5906 5905 5903 5902 5900
5913 5915 5917 5918 5920 5921 5922 5923 5924 5924 5925 5929 5927 5925 5927 5928 5928 5928 5928 5928 5928 5927 5927 5926 5925 5924 5924 5924 5923 5924 5923 5923 5922 5921 5920 5919 5919 5916 5912 5910 5908 5906 5904 5902 5899 5898 5898 5895 5892
5911 5916 5918 5919 5920 5922 5923 5925 5927 5927 5929 5930 5928 5927 5928 5929 5930 5929 5928 5929 5929 5929 5928 5927 5926 5925 5925 5925 5924 5924 5923 5923 5922 5921 5920 5919 5916 5913 5911 5908 5905 5902 5898 5893 5890 5888 5887 5887 5884
5911 5914 5917 5919 5921 5923 5924 5926 5927 5930 5931 5931 5929 5929 5928 5930 5931 5931 5931 5931 5932 5931 5931 5930 5929 5928 5928 5927 5925 5924 5923 5922 5920 5919 5918 5915 5913 5909 5906 5904 5899 5897 5893 5889 5884 5882 5879 5866 5867
5906 5911 5913 5920 5923 5925 5926 5928 5927 5930 5930 5930 5930 5930 5929 5931 5932 5932 5932 5933 5933 5932 5931 5930 5930 5929 5928 5927 5925 5924 5922 5920 5919 5917 5915 5912 5909 5905 5902 5899 5896 5892 5889 5886 5882 5879 5873 5865 5866